Wind_Speed
63 63 64 64 64 64 63 64 64 64 64 64 63 63 63 63 63 63 63 64 63 63 64 64 64 65 65 65 65 65 65 65 65 64 64 64 64 65 65 65 65 64 64
64 64 65 65 65 66 66 66 66 66 67 67 67 66 66 65 65 65 65 66 66 67 67 67 66 67 66 66 66 66 66 66 66 65 65 65 65 65 65 65 66 66 65
65 65 65 66 66 67 68 69 69 69 69 69 69 69 69 68 68 68 67 68 69 69 69 69 69 68 67 67 67 67 67 66 66 66 65 66 66 66 67 67 67 66 66
65 66 66 67 68 68 69 70 70 70 70 71 71 71 71 71 71 71 70 69 69 70 70 70 70 69 68 68 67 67 66 66 67 67 67 67 67 68 68 67 67 67 67
64 65 66 67 67 68 68 70 70 70 70 71 72 72 72 72 72 72 72 71 70 70 70 70 69 69 69 68 68 67 67 68 68 69 69 69 68 69 68 68 68 67 67
63 64 64 65 67 67 68 70 71 72 72 72 72 72 72 72 72 73 73 72 71 71 70 69 69 69 68 68 67 67 68 68 68 67 68 69 69 69 69 68 68 68 67
63 64 65 65 66 68 69 70 71 72 72 72 72 73 73 73 73 73 73 72 72 72 71 70 69 68 68 68 67 67 67 67 67 68 68 69 69 69 69 68 67 67 66
62 63 65 66 67 68 69 70 71 71 71 72 72 72 72 73 72 72 72 71 72 71 70 70 69 68 68 68 68 68 68 67 68 68 68 68 68 68 67 67 67 67 66
61 62 63 64 66 67 67 68 69 69 70 70 70 70 70 70 71 71 71 71 70 70 70 71 71 71 70 69 68 68 68 67 68 68 67 66 65 66 66 66 66 66 65
59 61 62 63 63 64 65 66 66 67 68 69 69 69 69 69 70 70 70 70 70 70 70 71 71 71 70 69 69 68 68 67 67 66 66 65 65 65 64 65 65 65 65
59 60 61 62 62 62 62 63 64 65 65 66 67 68 68 68 68 69 70 71 71 70 70 69 68 68 69 69 69 69 69 68 67 66 66 65 65 65 65 65 64 64 64
57 58 59 59 60 60 60 61 61 62 63 64 64 65 65 66 66 67 67 67 68 67 66 67 67 67 67 67 67 67 67 66 66 66 65 65 65 64 64 64 63 63 63
55 56 57 58 58 59 60 60 60 60 60 61 61 62 63 63 64 64 64 64 63 63 63 64 64 65 65 65 64 64 64 63 63 64 64 63 63 63 63 63 64 64 64
55 55 56 56 56 57 58 59 59 59 59 59 59 59 59 60 60 61 62 62 61 61 61 61 61 61 61 61 61 61 60 60 61 61 61 61 61 62 63 64 64 63 63
55 55 56 56 56 56 56 56 56 56 57 57 57 57 57 57 58 58 59 59 59 60 59 59 59 59 58 57 58 58 58 59 59 60 59 59 59 60 60 61 61 62 62
55 55 55 54 55 54 54 55 55 55 55 55 55 56 56 56 56 56 56 57 57 57 58 58 58 58 58 58 58 58 58 57 57 58 58 58 59 59 59 60 60 60 60
54 54 55 54 54 53 53 53 54 54 53 53 54 55 55 56 56 56 55 55 56 56 56 56 56 56 56 56 56 57 56 57 57 57 57 58 58 59 59 58 58 58 56
54 54 54 53 53 52 52 52 53 53 52 51 52 52 53 54 54 54 54 55 55 54 54 54 54 55 55 54 54 54 55 55 55 56 57 57 57 57 56 56 55 55 54
52 52 52 52 51 51 50 50 50 50 50 50 50 50 51 52 52 52 52 52 52 52 52 53 53 53 52 53 54 54 53 54 54 55 54 54 54 53 52 52 53 53 52
50 50 50 50 50 49 49 49 49 49 49 49 49 49 50 50 50 50 50 50 51 51 52 52 52 52 52 53 52 52 52 52 52 51 51 50 50 49 50 50 50 51 51
47 47 47 47 48 48 48 48 48 48 48 48 49 49 49 49 49 49 49 50 50 50 50 50 51 51 51 51 51 50 50 49 49 49 49 49 49 49 49 50 50 50 50
45 45 45 45 46 46 46 47 48 48 47 47 48 48 48 48 48 48 48 48 48 48 48 49 49 49 49 49 48 48 48 47 47 48 48 48 48 49 49 49 50 50 50
43 43 43 43 44 44 44 45 45 46 47 47 47 47 47 47 47 47 46 46 47 47 47 47 48 48 47 47 47 47 47 47 47 48 48 48 48 49 49 49 49 48 49
41 41 41 41 42 42 43 44 45 45 45 45 45 45 45 45 46 46 46 47 47 47 47 47 47 46 45 45 46 46 46 47 47 47 48 48 48 48 48 47 47 47 46
40 40 40 41 41 41 42 42 42 42 43 44 44 44 44 44 45 45 45 45 46 46 45 45 45 45 45 45 45 46 46 46 46 46 46 46 46 46 46 46 46 45 45
40 40 40 40 41 41 41 41 42 43 43 43 44 44 44 44 43 43 43 43 44 44 43 43 43 43 43 43 43 44 44 44 44 44 44 44 44 44 44 44 44 43 43
Wind_Direction
252 252 253 254 256 257 259 259 260 261 261 262 263 264 265 266 266 267 269 270 271 272 274 275 276 278 279 280 280 281 282 282 283 283 284 285 286 286 287 287 287 288 289
254 254 255 256 257 258 259 260 261 262 262 263 263 264 265 266 267 268 269 270 271 272 273 275 276 277 277 279 280 280 281 282 283 283 283 284 285 286 286 286 287 288 289
256 257 257 258 259 259 260 260 261 262 263 264 264 265 265 266 267 268 269 270 271 272 273 274 275 276 277 278 279 280 281 281 281 282 283 284 284 285 285 286 287 288 289
257 258 259 259 260 260 261 261 261 262 263 264 265 266 266 267 267 268 269 270 272 273 273 274 275 276 277 277 278 279 279 280 281 282 283 284 284 284 285 286 286 287 287
257 257 258 259 260 260 260 261 261 262 264 265 266 267 267 268 269 269 270 271 272 272 273 274 274 275 277 277 278 278 279 280 281 282 283 284 283 284 285 286 286 287 287
256 257 257 258 258 259 259 260 261 262 263 264 266 267 267 268 269 270 271 271 271 272 272 273 273 274 276 277 277 278 279 281 282 283 283 283 284 284 285 286 286 287 287
257 257 257 258 259 260 260 261 262 263 264 265 266 267 267 268 268 269 270 270 271 272 272 272 273 275 275 276 277 278 280 281 281 282 283 284 284 285 285 286 286 287 287
259 259 259 259 260 261 262 263 263 264 265 266 266 267 268 268 269 270 270 271 271 272 273 273 273 274 275 276 277 278 279 280 281 283 284 284 285 285 286 286 287 287 287
262 262 262 262 263 263 264 264 265 265 266 266 266 267 268 269 269 269 270 271 271 271 272 273 274 275 275 276 277 277 278 280 281 282 283 284 284 285 285 285 286 286 287
263 263 263 264 264 264 265 265 265 266 266 266 267 267 268 269 269 269 270 271 271 271 272 273 274 274 275 275 276 277 278 279 280 281 282 283 284 285 285 286 286 287 287
265 266 266 266 266 266 266 266 266 266 266 267 268 268 268 269 269 270 270 271 271 271 271 272 272 273 274 275 276 278 279 280 280 281 281 282 283 284 284 285 286 287 288
267 267 267 268 268 268 267 267 267 268 268 268 268 268 268 269 269 270 270 270 271 271 270 270 271 272 274 275 276 278 278 279 280 280 281 282 283 284 284 285 287 287 289
269 268 268 269 269 269 269 269 269 269 269 270 269 269 269 270 270 269 270 270 271 272 272 271 272 273 273 275 276 277 278 279 280 281 282 282 283 284 285 285 286 287 288
270 270 270 270 270 271 271 270 270 270 270 270 270 271 271 271 271 270 271 271 272 272 273 273 274 275 275 276 277 278 279 280 280 281 282 282 283 284 285 286 286 287 289
271 272 272 271 271 270 270 269 269 270 270 270 270 271 272 272 271 271 271 271 272 272 274 274 275 276 277 278 279 279 280 281 282 283 283 284 284 285 286 287 287 288 289
273 272 272 272 271 271 270 269 269 269 270 270 270 270 271 271 271 271 271 272 272 273 274 275 276 276 277 279 279 280 281 282 283 283 284 284 285 286 287 288 288 289 290
273 273 273 272 272 272 271 270 270 269 270 271 271 271 271 270 271 271 272 272 272 273 274 275 276 277 279 279 280 281 281 282 282 283 284 284 285 286 287 288 288 289 290
274 273 272 272 271 271 271 270 270 270 270 271 271 271 271 271 271 272 272 272 273 273 274 275 276 278 279 279 280 281 281 282 283 283 284 285 286 287 287 288 288 289 290
274 273 272 271 271 271 270 270 270 270 270 270 271 271 272 272 272 272 272 273 273 274 275 276 277 278 279 279 281 282 282 283 283 285 285 286 286 287 288 288 289 290 290
274 273 272 271 271 271 271 271 270 269 269 270 270 271 271 272 272 273 273 273 274 274 275 276 278 278 279 280 281 282 283 284 284 285 286 286 286 287 289 290 290 291 291
274 273 272 271 271 271 272 271 270 269 269 270 270 271 271 271 272 272 273 273 273 274 275 277 277 278 280 280 280 282 283 284 284 284 285 286 287 288 289 290 291 291 291
274 274 272 272 272 272 271 270 270 269 270 270 269 269 270 271 271 272 272 272 273 274 276 277 278 279 280 280 281 282 283 284 284 285 285 286 287 288 289 290 291 292 292
275 274 273 272 272 272 271 271 271 270 269 269 269 270 270 270 271 271 272 273 274 275 277 278 279 280 280 280 280 281 282 283 284 285 286 287 287 288 289 290 291 292 292
276 276 275 274 273 273 272 271 271 270 269 269 269 270 270 271 272 272 273 274 275 276 277 277 278 278 279 279 279 281 282 283 284 285 286 287 288 288 289 290 291 292 292
277 277 276 275 274 274 273 272 271 270 270 270 269 270 271 272 273 273 273 274 275 276 277 277 278 278 279 279 279 281 282 283 284 285 286 287 288 289 289 290 291 291 291
278 277 276 276 275 275 274 273 272 272 271 270 270 270 271 272 272 273 274 275 277 277 277 278 278 279 279 280 280 281 282 283 284 286 287 288 289 289 290 290 291 291 291
Height
5676 5678 5681 5683 5685 5687 5688 5689 5691 5692 5693 5694 5694 5695 5695 5696 5696 5695 5695 5694 5693 5693 5692 5690 5689 5688 5686 5684 5682 5679 5677 5674 5673 5672 5669 5666 5662 5659 5656 5652 5649 5646 5642
5660 5662 5665 5667 5669 5671 5672 5673 5675 5676 5677 5677 5678 5679 5679 5680 5680 5679 5679 5678 5677 5677 5676 5674 5673 5672 5670 5668 5666 5663 5661 5659 5656 5655 5653 5650 5647 5643 5640 5636 5633 5629 5625
5644 5647 5649 5650 5652 5654 5655 5657 5658 5659 5660 5661 5661 5662 5662 5663 5663 5662 5662 5661 5661 5660 5659 5658 5656 5655 5653 5651 5649 5647 5645 5642 5639 5638 5636 5633 5630 5627 5624 5620 5616 5612 5608
5628 5630 5632 5634 5635 5637 5638 5639 5640 5641 5642 5643 5644 5644 5645 5645 5645 5645 5644 5643 5643 5642 5641 5640 5639 5637 5636 5634 5632 5630 5628 5625 5622 5620 5618 5616 5613 5609 5606 5603 5600 5596 5592
5612 5614 5615 5617 5618 5619 5621 5622 5623 5624 5625 5625 5626 5626 5626 5626 5626 5626 5625 5625 5624 5624 5623 5622 5621 5620 5618 5616 5615 5613 5610 5608 5605 5602 5600 5597 5594 5591 5588 5584 5581 5578 5574
5595 5597 5598 5599 5601 5602 5603 5604 5605 5606 5607 5607 5608 5608 5608 5608 5608 5607 5606 5606 5605 5605 5605 5603 5602 5601 5600 5598 5596 5594 5592 5590 5587 5585 5582 5579 5576 5572 5569 5565 5562 5559 5557
5578 5580 5581 5582 5582 5584 5585 5585 5586 5587 5588 5588 5589 5589 5589 5589 5589 5588 5587 5586 5586 5586 5586 5585 5584 5583 5581 5580 5578 5575 5573 5571 5568 5566 5563 5560 5557 5554 5550 5547 5543 5540 5537
5560 5562 5563 5563 5564 5565 5566 5567 5568 5568 5569 5569 5570 5570 5570 5570 5570 5569 5568 5567 5567 5567 5567 5566 5566 5565 5563 5562 5560 5557 5555 5553 5550 5547 5544 5541 5537 5534 5531 5528 5524 5521 5519
5543 5544 5544 5545 5546 5547 5547 5548 5548 5549 5550 5550 5551 5551 5551 5551 5550 5550 5549 5549 5549 5548 5548 5547 5546 5546 5545 5543 5541 5539 5537 5535 5532 5529 5525 5522 5519 5516 5512 5509 5505 5502 5500
5526 5526 5527 5527 5528 5528 5529 5529 5530 5530 5530 5531 5531 5531 5532 5532 5531 5531 5530 5530 5530 5530 5529 5529 5528 5526 5525 5524 5522 5520 5518 5517 5514 5511 5508 5504 5501 5497 5493 5490 5486 5483 5480
5509 5509 5510 5510 5510 5510 5511 5511 5511 5511 5512 5512 5513 5513 5513 5513 5512 5512 5511 5511 5510 5510 5510 5510 5508 5507 5506 5505 5503 5501 5499 5497 5495 5492 5490 5487 5483 5479 5476 5472 5468 5464 5461
5492 5492 5493 5493 5493 5493 5493 5493 5493 5493 5493 5494 5494 5494 5494 5493 5493 5492 5492 5491 5491 5491 5491 5490 5489 5488 5487 5486 5483 5482 5480 5477 5475 5473 5471 5468 5465 5462 5458 5454 5450 5446 5442
5475 5475 5475 5475 5476 5476 5476 5476 5476 5476 5475 5475 5475 5476 5476 5475 5474 5474 5473 5473 5472 5471 5471 5471 5470 5469 5468 5467 5465 5463 5461 5458 5456 5454 5452 5450 5447 5443 5439 5436 5432 5428 5424
5458 5458 5458 5458 5458 5458 5458 5458 5458 5458 5458 5458 5458 5457 5457 5457 5456 5456 5455 5455 5454 5453 5453 5453 5452 5451 5449 5448 5447 5445 5443 5441 5438 5436 5434 5431 5429 5425 5422 5418 5415 5411 5407
5442 5441 5441 5440 5440 5440 5440 5440 5440 5440 5440 5441 5440 5440 5440 5440 5439 5438 5437 5437 5437 5436 5435 5435 5434 5433 5432 5431 5429 5428 5426 5424 5421 5419 5416 5414 5411 5408 5404 5401 5397 5393 5390
5425 5424 5424 5423 5423 5422 5422 5423 5422 5423 5423 5423 5423 5423 5423 5423 5422 5421 5421 5420 5420 5419 5419 5418 5418 5416 5415 5414 5412 5411 5409 5406 5404 5402 5399 5397 5394 5390 5387 5384 5380 5376 5372
5408 5408 5407 5407 5406 5406 5406 5406 5406 5406 5406 5406 5406 5406 5406 5406 5405 5405 5405 5404 5403 5402 5402 5401 5401 5400 5398 5397 5395 5393 5392 5390 5387 5385 5382 5379 5376 5374 5370 5367 5363 5359 5356
5391 5391 5390 5390 5389 5389 5389 5389 5390 5390 5390 5390 5390 5389 5389 5389 5389 5389 5388 5388 5387 5386 5385 5385 5384 5383 5382 5380 5379 5377 5375 5373 5370 5368 5365 5362 5359 5357 5354 5350 5347 5343 5340
5374 5374 5373 5373 5373 5373 5373 5373 5373 5374 5374 5375 5374 5374 5374 5373 5373 5373 5372 5371 5371 5371 5369 5368 5368 5367 5366 5364 5363 5361 5359 5357 5354 5351 5349 5346 5343 5341 5338 5335 5331 5328 5325
5357 5357 5357 5357 5357 5357 5357 5357 5358 5358 5358 5359 5359 5359 5358 5358 5358 5357 5357 5356 5355 5355 5354 5353 5352 5351 5350 5348 5347 5345 5343 5341 5339 5336 5333 5331 5328 5325 5323 5320 5317 5313 5310
5341 5341 5341 5341 5341 5342 5342 5342 5342 5343 5343 5343 5344 5343 5343 5343 5343 5342 5342 5341 5340 5340 5339 5338 5337 5336 5334 5332 5331 5329 5328 5326 5324 5321 5319 5317 5314 5311 5308 5305 5302 5299 5295
5326 5326 5326 5326 5326 5326 5326 5327 5327 5327 5328 5328 5328 5328 5328 5328 5328 5327 5327 5326 5326 5325 5324 5323 5322 5320 5319 5317 5316 5314 5313 5311 5309 5307 5305 5302 5300 5297 5294 5291 5287 5284 5281
5312 5311 5311 5311 5311 5311 5311 5311 5311 5312 5312 5312 5312 5313 5313 5313 5312 5312 5312 5312 5311 5310 5309 5308 5307 5306 5304 5303 5301 5299 5298 5297 5294 5292 5290 5287 5285 5282 5279 5276 5273 5269 5266
5298 5298 5297 5297 5296 5296 5297 5297 5297 5297 5297 5297 5298 5298 5298 5298 5298 5297 5297 5297 5296 5295 5294 5293 5292 5291 5289 5288 5286 5285 5283 5282 5280 5277 5275 5272 5270 5267 5264 5261 5258 5255 5251
5284 5284 5283 5283 5283 5283 5282 5282 5282 5282 5282 5283 5283 5283 5283 5283 5283 5283 5282 5282 5281 5280 5279 5278 5277 5276 5275 5274 5272 5271 5269 5267 5265 5263 5260 5258 5255 5252 5249 5246 5244 5240 5237
5271 5270 5269 5269 5269 5268 5268 5268 5268 5268 5268 5268 5268 5268 5269 5269 5268 5268 5268 5267 5266 5266 5265 5264 5263 5262 5261 5259 5258 5256 5255 5253 5251 5248 5246 5243 5241 5238 5235 5232 5229 5226 5223